This is the latest recevied weather packets stored in our database for station/object PA0HHN. If no packets are shown the sender has not sent any weather packets the latest 1 day(s).
| Time | Temp. | Humidity | Pressure | Rain* | Wind** | Luminosity | Snow |
|---|---|---|---|---|---|---|---|
| 1777999501 | 12.22° C | 79% | 1004.1 hPa | - | 0 m/s | - | - |
| 1777997702 | 12.22° C | 79% | 1004.2 hPa | - | 0.45 m/s, 250° | - | - |
| 1777996801 | 12.22° C | 79% | 1004.1 hPa | - | 0.45 m/s, 220° | - | - |
| 1777995902 | 12.22° C | 80% | 1004.6 hPa | - | 0 m/s | - | - |
| 1777995002 | 12.22° C | 81% | 1004.3 hPa | - | 0.45 m/s, 249° | - | - |
| 1777994101 | 12.22° C | 82% | 1004.6 hPa | - | 0.89 m/s, 294° | - | - |
| 1777993202 | 12.22° C | 83% | 1004.3 hPa | - | 0.45 m/s, 72° | - | - |
| 1777992302 | 12.78° C | 82% | 1004.7 hPa | - | 0 m/s | - | - |
| 1777991402 | 12.78° C | 83% | 1004.7 hPa | - | 0 m/s | - | - |
| 1777990502 | 12.78° C | 81% | 1004.9 hPa | - | 0.89 m/s, 237° | - | - |
| 1777989602 | 12.22° C | 83% | 1004.9 hPa | - | 0 m/s | - | - |
| 1777988702 | 12.22° C | 83% | 1004.9 hPa | - | 0 m/s | - | - |
| 1777987802 | 12.22° C | 83% | 1005.2 hPa | - | 0.45 m/s, 244° | - | - |
| 1777986901 | 12.22° C | 83% | 1005.1 hPa | - | 0 m/s | - | - |
| 1777978800 | 11.11° C | 86% | 1005.9 hPa | - | 0.89 m/s, 47° | - | - |
| 1777977900 | 11.11° C | 85% | 1006 hPa | - | 0.89 m/s, 66° | - | - |
| 1777977000 | 11.11° C | 85% | 1006 hPa | - | 0 m/s | - | - |
| 1777976101 | 11.11° C | 84% | 1005.9 hPa | - | 0 m/s | - | - |
| 1777974302 | 11.11° C | 84% | 1006.3 hPa | - | 0 m/s | - | - |
| 1777973400 | 11.11° C | 84% | 1006.1 hPa | - | 0.45 m/s, 30° | - | - |
| 1777970702 | 10° C | 88% | 1006.3 hPa | - | 0.45 m/s, 224° | - | - |
| 1777968900 | 8.89° C | 93% | 1006.6 hPa | - | 0 m/s | - | - |
| 1777967100 | 8.89° C | 95% | 1006.9 hPa | - | 0 m/s | - | - |
| 1777966202 | 7.78° C | 96% | 1006.6 hPa | - | 0 m/s | - | - |
| 1777965300 | 7.78° C | 96% | 1006.7 hPa | - | 0.45 m/s, 65° | - | - |
* Rain since midnight (hover to see other rain measurements)
** Current wind speed in m/s (hover to see current wind gust speed)